| time (UTC) | temp F | wind direction | speed MPH | gust MPH | rain 1hr in | rain 24hr in | rain mn in | humidity % | barometer mb |
| 20260503184506 | 63 | 252 | 5.0 | 10.0 | 0.00 | 0.00 | 0.00 | 35 | 1054.6 |
| 20260503184002 | 62 | 253 | 6.0 | 8.0 | 0.00 | 0.00 | 0.00 | 33 | 1054.6 |
| 20260503183459 | 64 | 249 | 2.0 | 8.0 | 0.00 | 0.00 | 0.00 | 35 | 1054.7 |
| 20260503182955 | 64 | 259 | 2.0 | 9.0 | 0.00 | 0.00 | 0.00 | 33 | 1054.7 |
| 20260503182455 | 63 | 199 | 6.0 | 10.0 | 0.00 | 0.00 | 0.00 | 37 | 1054.9 |
| 20260503181952 | 63 | 235 | 2.0 | 6.0 | 0.00 | 0.00 | 0.00 | 42 | 1054.6 |
| 20260503181449 | 62 | 184 | 3.0 | 8.0 | 0.00 | 0.00 | 0.00 | 38 | 1054.8 |
| 20260503180945 | 62 | 170 | 5.0 | 8.0 | 0.00 | 0.00 | 0.00 | 37 | 1054.8 |
| 20260503180443 | 63 | 146 | 0.0 | 4.0 | 0.00 | 0.00 | 0.00 | 37 | 1055.1 |
| 20260503175939 | 62 | 295 | 1.0 | 15.0 | 0.00 | 0.00 | 0.00 | 39 | 1055.2 |
| 20260503175438 | 61 | 167 | 3.0 | 3.0 | 0.00 | 0.00 | 0.00 | 35 | 1055.1 |
| 20260503174933 | 62 | 249 | 6.0 | 8.0 | 0.00 | 0.00 | 0.00 | 31 | 1055.2 |
| 20260503174432 | 62 | 237 | 4.0 | 8.0 | 0.00 | 0.00 | 0.00 | 33 | 1055.3 |
| 20260503173931 | 61 | 177 | 4.0 | 9.0 | 0.00 | 0.00 | 0.00 | 35 | 1055.3 |
| 20260503173428 | 60 | 170 | 0.0 | 6.0 | 0.00 | 0.00 | 0.00 | 36 | 1055.5 |
| 20260503172925 | 63 | 165 | 4.0 | 7.0 | 0.00 | 0.00 | 0.00 | 33 | 1055.6 |
| 20260503172422 | 61 | 265 | 1.0 | 7.0 | 0.00 | 0.00 | 0.00 | 38 | 1055.9 |
| 20260503171918 | 61 | 300 | 6.0 | 10.0 | 0.00 | 0.00 | 0.00 | 31 | 1055.7 |
| 20260503171415 | 63 | 270 | 2.0 | 6.0 | 0.00 | 0.00 | 0.00 | 32 | 1055.9 |
| 20260503170913 | 61 | 285 | 3.0 | 6.0 | 0.00 | 0.00 | 0.00 | 34 | 1056.1 |
| 20260503170409 | 61 | 225 | 0.0 | 2.0 | 0.00 | 0.00 | 0.00 | 37 | 1056.0 |
| 20260503150801 | 59 | 168 | 2.0 | 6.0 | 0.00 | 0.00 | 0.00 | 37 | 1057.1 |
| 20260503150257 | 59 | 161 | 4.0 | 6.0 | 0.00 | 0.00 | 0.00 | 35 | 1057.2 |
| 20260503140222 | 56 | 128 | 2.0 | 6.0 | 0.00 | 0.00 | 0.00 | 50 | 1057.3 |
| 20260503131151 | 48 | 159 | 3.0 | 3.0 | 0.00 | 0.00 | 0.00 | 71 | 1056.8 |
| 20260503130648 | 47 | 153 | 3.0 | 3.0 | 0.00 | 0.00 | 0.00 | 75 | 1056.9 |
| 20260503130146 | 46 | 133 | 3.0 | 3.0 | 0.00 | 0.00 | 0.00 | 76 | 1056.9 |
| 20260503120111 | 38 | 325 | 0.0 | 0.0 | 0.00 | 0.00 | 0.00 | 97 | 1056.9 |
| 20260503110539 | 30 | 325 | 0.0 | 0.0 | 0.00 | 0.00 | 0.00 | 96 | 1056.3 |
| 20260503090426 | 31 | 325 | 0.0 | 0.0 | 0.00 | 0.00 | 0.00 | 95 | 1055.8 |
| 20260503081352 | 32 | 325 | 0.0 | 0.0 | 0.00 | 0.00 | 0.00 | 94 | 1055.3 |
| 20260503080849 | 32 | 325 | 0.0 | 0.0 | 0.00 | 0.00 | 0.00 | 94 | 1055.5 |
| 20260503080346 | 32 | 325 | 0.0 | 0.0 | 0.00 | 0.00 | 0.00 | 94 | 1055.4 |
| 20260503072823 | 34 | 325 | 0.0 | 0.0 | 0.00 | 0.00 | 0.00 | 92 | 1055.1 |
| 20260503072319 | 33 | 325 | 0.0 | 0.0 | 0.00 | 0.00 | 0.00 | 92 | 1055.2 |
| 20260503071815 | 33 | 325 | 0.0 | 0.0 | 0.00 | 0.00 | 0.00 | 92 | 1055.1 |
| 20260503071313 | 34 | 325 | 0.0 | 0.0 | 0.00 | 0.00 | 0.00 | 92 | 1055.3 |
| 20260503070809 | 34 | 325 | 0.0 | 0.0 | 0.00 | 0.00 | 0.00 | 92 | 1055.0 |
| 20260503070307 | 34 | 325 | 0.0 | 0.0 | 0.00 | 0.00 | 0.00 | 91 | 1055.2 |
| 20260503060238 | 36 | 325 | 0.0 | 0.0 | 0.00 | 0.00 | 0.00 | 85 | 1055.3 |
| 20260503054725 | 36 | 325 | 0.0 | 0.0 | 0.00 | 0.00 | 0.00 | 85 | 1055.3 |
| 20260503054222 | 36 | 325 | 0.0 | 0.0 | 0.00 | 0.00 | 0.00 | 83 | 1055.3 |
| 20260503053720 | 36 | 325 | 0.0 | 0.0 | 0.00 | 0.00 | 0.00 | 82 | 1055.3 |
| 20260503053219 | 37 | 325 | 0.0 | 0.0 | 0.00 | 0.00 | 0.00 | 81 | 1055.3 |
| 20260503052714 | 38 | 325 | 0.0 | 0.0 | 0.00 | 0.00 | 0.00 | 79 | 1055.3 |
| 20260503052211 | 38 | 325 | 0.0 | 0.0 | 0.00 | 0.00 | 0.00 | 77 | 1055.2 |
| 20260503051706 | 38 | 325 | 0.0 | 0.0 | 0.00 | 0.00 | 0.00 | 77 | 1055.3 |
| 20260503051204 | 39 | 325 | 0.0 | 0.0 | 0.00 | 0.00 | 0.00 | 76 | 1055.4 |
| 20260503050701 | 40 | 325 | 0.0 | 0.0 | 0.00 | 0.00 | 0.00 | 74 | 1055.6 |
| 20260503050157 | 40 | 325 | 0.0 | 0.0 | 0.00 | 0.00 | 0.00 | 75 | 1055.4 |
| 20260503045655 | 40 | 325 | 0.0 | 0.0 | 0.00 | 0.00 | 0.00 | 76 | 1055.3 |
| 20260503045152 | 39 | 325 | 0.0 | 0.0 | 0.00 | 0.00 | 0.00 | 76 | 1055.1 |
| 20260503044648 | 39 | 325 | 0.0 | 0.0 | 0.00 | 0.00 | 0.00 | 76 | 1055.3 |
| 20260503044146 | 40 | 325 | 0.0 | 0.0 | 0.00 | 0.00 | 0.00 | 76 | 1055.3 |
| 20260503043643 | 40 | 325 | 0.0 | 0.0 | 0.00 | 0.00 | 0.00 | 76 | 1055.4 |
| 20260503043140 | 40 | 325 | 0.0 | 0.0 | 0.00 | 0.00 | 0.00 | 76 | 1055.4 |
| 20260503042636 | 40 | 325 | 0.0 | 0.0 | 0.00 | 0.00 | 0.00 | 75 | 1055.3 |
| 20260503042132 | 40 | 325 | 0.0 | 0.0 | 0.00 | 0.00 | 0.00 | 76 | 1055.2 |
| 20260503041629 | 40 | 325 | 0.0 | 0.0 | 0.00 | 0.00 | 0.00 | 76 | 1055.1 |
| 20260503041127 | 40 | 325 | 0.0 | 0.0 | 0.00 | 0.00 | 0.00 | 77 | 1055.1 |
| 20260503040624 | 40 | 325 | 0.0 | 0.0 | 0.00 | 0.00 | 0.00 | 78 | 1055.1 |
| 20260503040121 | 40 | 325 | 0.0 | 0.0 | 0.00 | 0.00 | 0.00 | 78 | 1055.2 |
| 20260503035617 | 41 | 325 | 0.0 | 0.0 | 0.00 | 0.00 | 0.00 | 78 | 1055.0 |
| 20260503035115 | 41 | 325 | 0.0 | 0.0 | 0.00 | 0.00 | 0.00 | 78 | 1055.1 |
| 20260503034612 | 41 | 325 | 0.0 | 0.0 | 0.00 | 0.00 | 0.00 | 78 | 1055.0 |
| 20260503034110 | 41 | 325 | 0.0 | 0.0 | 0.00 | 0.00 | 0.00 | 78 | 1054.8 |
| 20260503033607 | 41 | 325 | 0.0 | 0.0 | 0.00 | 0.00 | 0.00 | 80 | 1054.9 |
| 20260503033104 | 41 | 325 | 0.0 | 0.0 | 0.00 | 0.00 | 0.00 | 81 | 1054.9 |
| 20260503032603 | 41 | 325 | 0.0 | 0.0 | 0.00 | 0.00 | 0.00 | 81 | 1054.8 |
| 20260503032101 | 42 | 325 | 0.0 | 0.0 | 0.00 | 0.00 | 0.00 | 82 | 1055.0 |
| 20260503031558 | 41 | 325 | 0.0 | 0.0 | 0.00 | 0.00 | 0.00 | 84 | 1054.9 |
| 20260503031055 | 41 | 325 | 0.0 | 0.0 | 0.00 | 0.00 | 0.00 | 83 | 1055.0 |
| 20260503030551 | 42 | 325 | 0.0 | 0.0 | 0.00 | 0.00 | 0.00 | 84 | 1054.9 |
| 20260503030048 | 42 | 325 | 0.0 | 0.0 | 0.00 | 0.00 | 0.00 | 83 | 1054.8 |
| 20260503025545 | 41 | 325 | 0.0 | 0.0 | 0.00 | 0.00 | 0.00 | 83 | 1054.9 |
| 20260503025043 | 41 | 325 | 0.0 | 0.0 | 0.00 | 0.00 | 0.00 | 84 | 1054.7 |
| 20260503024538 | 41 | 325 | 0.0 | 0.0 | 0.00 | 0.00 | 0.00 | 85 | 1054.7 |
| 20260503024036 | 41 | 325 | 0.0 | 0.0 | 0.00 | 0.00 | 0.00 | 84 | 1054.6 |
| 20260503023533 | 41 | 325 | 0.0 | 0.0 | 0.00 | 0.00 | 0.00 | 83 | 1054.5 |
| 20260503023030 | 41 | 325 | 0.0 | 0.0 | 0.00 | 0.00 | 0.00 | 79 | 1054.6 |
| 20260503022526 | 42 | 325 | 0.0 | 0.0 | 0.00 | 0.00 | 0.00 | 76 | 1054.5 |
| 20260503022021 | 42 | 325 | 0.0 | 0.0 | 0.00 | 0.00 | 0.00 | 74 | 1054.5 |
| 20260503021518 | 42 | 325 | 0.0 | 0.0 | 0.00 | 0.00 | 0.00 | 74 | 1054.4 |
| 20260503021015 | 41 | 325 | 0.0 | 0.0 | 0.00 | 0.00 | 0.00 | 75 | 1054.3 |
| 20260503020512 | 41 | 325 | 0.0 | 0.0 | 0.00 | 0.00 | 0.00 | 74 | 1054.1 |
| 20260503020009 | 41 | 325 | 0.0 | 0.0 | 0.00 | 0.00 | 0.00 | 75 | 1054.1 |
| 20260503015505 | 42 | 325 | 0.0 | 0.0 | 0.00 | 0.00 | 0.00 | 73 | 1054.0 |
| 20260503015002 | 43 | 325 | 0.0 | 0.0 | 0.00 | 0.00 | 0.00 | 72 | 1053.9 |
| 20260503014458 | 43 | 325 | 0.0 | 0.0 | 0.00 | 0.00 | 0.00 | 69 | 1053.9 |
| 20260503013957 | 44 | 325 | 0.0 | 0.0 | 0.00 | 0.00 | 0.00 | 68 | 1053.9 |
| 20260503013453 | 44 | 325 | 0.0 | 0.0 | 0.00 | 0.00 | 0.00 | 68 | 1053.9 |
| 20260503012950 | 45 | 325 | 0.0 | 0.0 | 0.00 | 0.00 | 0.00 | 66 | 1053.8 |
| 20260503012449 | 46 | 325 | 0.0 | 0.0 | 0.00 | 0.00 | 0.00 | 65 | 1053.8 |
| 20260503011944 | 47 | 325 | 0.0 | 0.0 | 0.00 | 0.00 | 0.00 | 64 | 1053.5 |
| 20260503011441 | 47 | 325 | 0.0 | 0.0 | 0.00 | 0.00 | 0.00 | 62 | 1053.7 |
| 20260503010939 | 48 | 325 | 0.0 | 1.0 | 0.00 | 0.00 | 0.00 | 61 | 1053.5 |
| 20260503010435 | 48 | 325 | 0.0 | 0.0 | 0.00 | 0.00 | 0.00 | 61 | 1053.4 |
| 20260503005932 | 49 | 325 | 1.0 | 1.0 | 0.00 | 0.00 | 0.00 | 59 | 1053.5 |
| 20260503005430 | 49 | 325 | 0.0 | 2.0 | 0.00 | 0.00 | 0.00 | 58 | 1053.3 |
| 20260503004926 | 49 | 325 | 1.0 | 1.0 | 0.00 | 0.00 | 0.00 | 59 | 1053.3 |
| 20260503004423 | 49 | 325 | 2.0 | 2.0 | 0.00 | 0.00 | 0.00 | 57 | 1053.3 |
| 20260503003921 | 49 | 327 | 2.0 | 3.0 | 0.00 | 0.00 | 0.00 | 58 | 1053.3 |
| 20260503003417 | 49 | 327 | 2.0 | 2.0 | 0.00 | 0.00 | 0.00 | 58 | 1053.2 |
| 20260503002915 | 49 | 327 | 1.0 | 3.0 | 0.00 | 0.00 | 0.00 | 59 | 1053.3 |
| 20260503002412 | 49 | 327 | 3.0 | 3.0 | 0.00 | 0.00 | 0.00 | 59 | 1053.2 |
| 20260503001908 | 49 | 328 | 3.0 | 3.0 | 0.00 | 0.00 | 0.00 | 57 | 1053.1 |
| 20260503001404 | 50 | 331 | 2.0 | 2.0 | 0.00 | 0.00 | 0.00 | 57 | 1052.8 |
| 20260503000902 | 51 | 331 | 0.0 | 1.0 | 0.00 | 0.00 | 0.00 | 56 | 1052.8 |
| 20260503000400 | 52 | 354 | 0.0 | 2.0 | 0.00 | 0.00 | 0.00 | 53 | 1052.8 |
| 20260502235856 | 52 | 312 | 2.0 | 2.0 | 0.00 | 0.00 | 0.00 | 54 | 1052.8 |
| 20260502235353 | 52 | 310 | 0.0 | 0.0 | 0.00 | 0.00 | 0.00 | 59 | 1052.6 |
| 20260502234850 | 51 | 310 | 0.0 | 0.0 | 0.00 | 0.00 | 0.00 | 61 | 1052.8 |
| 20260502234347 | 51 | 310 | 0.0 | 2.0 | 0.00 | 0.00 | 0.00 | 57 | 1053.0 |
| 20260502233844 | 52 | 310 | 0.0 | 2.0 | 0.00 | 0.00 | 0.00 | 56 | 1052.7 |
| 20260502233340 | 52 | 310 | 0.0 | 3.0 | 0.00 | 0.00 | 0.00 | 56 | 1052.5 |
| 20260502232837 | 53 | 310 | 1.0 | 1.0 | 0.00 | 0.00 | 0.00 | 54 | 1052.9 |
| 20260502232333 | 55 | 311 | 2.0 | 2.0 | 0.00 | 0.00 | 0.00 | 48 | 1052.5 |
| 20260502231830 | 55 | 288 | 1.0 | 2.0 | 0.00 | 0.00 | 0.00 | 51 | 1052.5 |
| 20260502231328 | 55 | 288 | 4.0 | 6.0 | 0.00 | 0.00 | 0.00 | 47 | 1052.7 |
| 20260502230826 | 55 | 292 | 4.0 | 6.0 | 0.00 | 0.00 | 0.00 | 49 | 1052.6 |
| 20260502230324 | 55 | 312 | 2.0 | 6.0 | 0.00 | 0.00 | 0.00 | 51 | 1052.6 |
| 20260502225820 | 54 | 272 | 6.0 | 10.0 | 0.00 | 0.00 | 0.00 | 50 | 1052.8 |
| 20260502225317 | 54 | 297 | 2.0 | 3.0 | 0.00 | 0.00 | 0.00 | 56 | 1052.6 |
| 20260502224814 | 55 | 298 | 3.0 | 9.0 | 0.00 | 0.00 | 0.00 | 50 | 1052.6 |
| 20260502224309 | 56 | 288 | 2.0 | 4.0 | 0.00 | 0.00 | 0.00 | 48 | 1052.7 |
| 20260502223808 | 56 | 278 | 3.0 | 6.0 | 0.00 | 0.00 | 0.00 | 52 | 1052.8 |
| 20260502223306 | 55 | 268 | 3.0 | 6.0 | 0.00 | 0.00 | 0.00 | 53 | 1052.9 |
| 20260502222803 | 54 | 291 | 1.0 | 3.0 | 0.00 | 0.00 | 0.00 | 55 | 1052.8 |
| 20260502222300 | 53 | 293 | 5.0 | 7.0 | 0.00 | 0.00 | 0.00 | 53 | 1052.8 |
| 20260502221755 | 53 | 274 | 3.0 | 6.0 | 0.00 | 0.00 | 0.00 | 56 | 1052.7 |
| 20260502221252 | 53 | 276 | 2.0 | 6.0 | 0.00 | 0.00 | 0.00 | 55 | 1052.7 |
| 20260502220749 | 53 | 293 | 3.0 | 3.0 | 0.00 | 0.00 | 0.00 | 52 | 1052.7 |
| 20260502220245 | 53 | 282 | 3.0 | 6.0 | 0.00 | 0.00 | 0.00 | 56 | 1052.7 |
| 20260502215741 | 53 | 289 | 6.0 | 9.0 | 0.00 | 0.00 | 0.00 | 52 | 1052.9 |
| 20260502215239 | 53 | 295 | 5.0 | 6.0 | 0.00 | 0.00 | 0.00 | 51 | 1052.7 |
| 20260502214736 | 53 | 293 | 2.0 | 4.0 | 0.00 | 0.00 | 0.00 | 54 | 1052.7 |
| 20260502214234 | 54 | 294 | 6.0 | 7.0 | 0.00 | 0.00 | 0.00 | 53 | 1053.0 |
| 20260502213730 | 54 | 285 | 2.0 | 4.0 | 0.00 | 0.00 | 0.00 | 55 | 1052.8 |
| 20260502213227 | 54 | 293 | 0.0 | 0.0 | 0.00 | 0.00 | 0.00 | 60 | 1052.5 |
| 20260502212726 | 53 | 292 | 2.0 | 3.0 | 0.00 | 0.00 | 0.00 | 54 | 1052.7 |
| 20260502212224 | 53 | 291 | 3.0 | 3.0 | 0.00 | 0.00 | 0.00 | 57 | 1052.6 |
| 20260502211720 | 53 | 306 | 2.0 | 3.0 | 0.00 | 0.00 | 0.00 | 55 | 1052.5 |
| 20260502211217 | 53 | 303 | 3.0 | 3.0 | 0.00 | 0.00 | 0.00 | 55 | 1053.0 |
| 20260502210714 | 53 | 299 | 1.0 | 3.0 | 0.00 | 0.00 | 0.00 | 58 | 1052.9 |
| 20260502210211 | 53 | 296 | 3.0 | 4.0 | 0.00 | 0.00 | 0.00 | 57 | 1052.7 |
| 20260502205708 | 54 | 319 | 2.0 | 4.0 | 0.00 | 0.00 | 0.00 | 54 | 1052.6 |
| 20260502205204 | 55 | 292 | 2.0 | 6.0 | 0.00 | 0.00 | 0.00 | 52 | 1052.6 |
| 20260502204701 | 56 | 296 | 3.0 | 3.0 | 0.00 | 0.00 | 0.00 | 53 | 1052.8 |
| 20260502204159 | 55 | 299 | 3.0 | 6.0 | 0.00 | 0.00 | 0.00 | 52 | 1052.8 |
| 20260502203656 | 55 | 295 | 3.0 | 3.0 | 0.00 | 0.00 | 0.00 | 54 | 1052.9 |
| 20260502203154 | 55 | 321 | 3.0 | 6.0 | 0.00 | 0.00 | 0.00 | 53 | 1052.9 |
| 20260502202648 | 55 | 290 | 7.0 | 9.0 | 0.00 | 0.00 | 0.00 | 50 | 1052.7 |
| 20260502202147 | 55 | 298 | 3.0 | 6.0 | 0.00 | 0.00 | 0.00 | 50 | 1052.7 |
| 20260502201643 | 54 | 293 | 5.0 | 9.0 | 0.00 | 0.00 | 0.00 | 56 | 1052.9 |
| 20260502201140 | 54 | 306 | 3.0 | 7.0 | 0.00 | 0.00 | 0.00 | 54 | 1052.8 |
| 20260502200636 | 54 | 287 | 0.0 | 2.0 | 0.00 | 0.00 | 0.00 | 54 | 1053.1 |
| 20260502200133 | 54 | 286 | 2.0 | 4.0 | 0.00 | 0.00 | 0.00 | 55 | 1053.1 |
| 20260502195631 | 54 | 307 | 3.0 | 4.0 | 0.00 | 0.00 | 0.00 | 52 | 1053.1 |
| 20260502195127 | 54 | 309 | 3.0 | 4.0 | 0.00 | 0.00 | 0.00 | 52 | 1053.3 |
| 20260502194624 | 54 | 280 | 2.0 | 3.0 | 0.00 | 0.00 | 0.00 | 52 | 1053.1 |
| 20260502194120 | 54 | 325 | 2.0 | 3.0 | 0.00 | 0.00 | 0.00 | 50 | 1053.0 |
| 20260502193617 | 55 | 312 | 3.0 | 4.0 | 0.00 | 0.00 | 0.00 | 50 | 1052.8 |
| 20260502193114 | 55 | 1 | 3.0 | 6.0 | 0.00 | 0.00 | 0.00 | 48 | 1053.0 |
| 20260502192609 | 56 | 310 | 3.0 | 7.0 | 0.00 | 0.00 | 0.00 | 50 | 1053.2 |
| 20260502192107 | 56 | 308 | 3.0 | 4.0 | 0.00 | 0.00 | 0.00 | 50 | 1052.8 |
| 20260502191604 | 55 | 328 | 1.0 | 3.0 | 0.00 | 0.00 | 0.00 | 54 | 1053.1 |
| 20260502191101 | 54 | 319 | 2.0 | 4.0 | 0.00 | 0.00 | 0.00 | 50 | 1052.9 |
| 20260502190559 | 54 | 29 | 2.0 | 3.0 | 0.00 | 0.00 | 0.00 | 48 | 1052.8 |
| 20260502190056 | 54 | 335 | 1.0 | 4.0 | 0.00 | 0.00 | 0.00 | 51 | 1053.1 |
| 20260502185550 | 55 | 300 | 5.0 | 13.0 | 0.00 | 0.00 | 0.00 | 48 | 1053.0 |
| 20260502185048 | 55 | 296 | 9.0 | 13.0 | 0.00 | 0.00 | 0.00 | 45 | 1053.0 |